QPF
0.00 0.01 0.02 0.02 0.01 0.02 0.01 0.00 0.00 0.00 0.00 0.00 0.00 0.00 0.00 0.01 0.02 0.02 0.03 0.06 0.12 0.10 0.07 0.09 0.09 0.09 0.13 0.17 0.11 0.09 0.09 0.09 0.09 0.09 0.11 0.13 0.09 0.06 0.05 0.06 0.06 0.05 0.07 0.12 0.15 0.09 0.08 0.08 0.08
0.01 0.02 0.02 0.01 0.02 0.01 0.01 0.01 0.00 0.00 0.00 0.00 0.00 0.00 0.00 0.01 0.02 0.06 0.09 0.05 0.04 0.06 0.06 0.07 0.10 0.10 0.16 0.19 0.15 0.13 0.12 0.11 0.12 0.11 0.11 0.11 0.07 0.05 0.05 0.05 0.05 0.06 0.09 0.12 0.16 0.07 0.07 0.08 0.08
0.01 0.02 0.02 0.02 0.01 0.01 0.01 0.01 0.00 0.00 0.00 0.00 0.00 0.00 0.00 0.01 0.03 0.06 0.09 0.05 0.03 0.05 0.07 0.10 0.11 0.12 0.13 0.14 0.14 0.14 0.11 0.11 0.13 0.13 0.13 0.11 0.07 0.05 0.05 0.04 0.05 0.07 0.10 0.11 0.14 0.07 0.07 0.08 0.09
0.01 0.01 0.01 0.01 0.00 0.00 0.01 0.01 0.00 0.00 0.00 0.00 0.00 0.00 0.00 0.01 0.02 0.04 0.07 0.09 0.10 0.09 0.09 0.13 0.14 0.12 0.13 0.13 0.12 0.12 0.10 0.10 0.11 0.11 0.11 0.11 0.08 0.07 0.07 0.05 0.05 0.06 0.09 0.12 0.11 0.08 0.07 0.08 0.10
0.01 0.01 0.01 0.01 0.00 0.00 0.01 0.01 0.00 0.00 0.00 0.00 0.00 0.00 0.01 0.01 0.01 0.02 0.04 0.07 0.08 0.08 0.11 0.18 0.18 0.13 0.11 0.09 0.10 0.10 0.09 0.09 0.08 0.08 0.08 0.10 0.09 0.08 0.08 0.08 0.07 0.07 0.10 0.12 0.10 0.09 0.07 0.07 0.08
0.00 0.01 0.01 0.01 0.00 0.00 0.00 0.01 0.01 0.01 0.00 0.00 0.00 0.00 0.01 0.02 0.02 0.03 0.06 0.08 0.06 0.07 0.09 0.16 0.14 0.08 0.07 0.08 0.08 0.09 0.09 0.07 0.06 0.07 0.09 0.09 0.09 0.09 0.09 0.09 0.09 0.09 0.10 0.10 0.11 0.10 0.06 0.07 0.07
0.01 0.01 0.01 0.01 0.01 0.01 0.01 0.02 0.01 0.01 0.01 0.00 0.00 0.01 0.02 0.02 0.03 0.04 0.07 0.09 0.09 0.06 0.06 0.08 0.10 0.09 0.07 0.08 0.08 0.08 0.08 0.07 0.07 0.07 0.10 0.12 0.12 0.12 0.09 0.08 0.07 0.06 0.06 0.07 0.09 0.11 0.09 0.07 0.07
0.01 0.00 0.00 0.00 0.01 0.01 0.01 0.01 0.01 0.01 0.01 0.01 0.00 0.01 0.01 0.02 0.02 0.03 0.04 0.06 0.07 0.04 0.03 0.04 0.07 0.08 0.08 0.09 0.10 0.10 0.10 0.11 0.10 0.12 0.13 0.14 0.15 0.13 0.10 0.07 0.06 0.06 0.05 0.06 0.08 0.10 0.10 0.08 0.09
0.01 0.00 0.00 0.00 0.01 0.02 0.01 0.01 0.01 0.01 0.00 0.01 0.00 0.00 0.01 0.01 0.01 0.01 0.02 0.03 0.02 0.02 0.01 0.03 0.06 0.08 0.08 0.08 0.08 0.09 0.11 0.11 0.12 0.12 0.12 0.11 0.09 0.10 0.10 0.09 0.08 0.08 0.08 0.08 0.10 0.11 0.11 0.11 0.10
0.01 0.01 0.00 0.00 0.00 0.02 0.01 0.01 0.01 0.00 0.00 0.00 0.00 0.00 0.01 0.02 0.02 0.01 0.01 0.01 0.01 0.01 0.01 0.02 0.06 0.08 0.09 0.08 0.07 0.07 0.07 0.07 0.08 0.08 0.06 0.06 0.06 0.07 0.09 0.10 0.11 0.10 0.10 0.11 0.13 0.13 0.13 0.11 0.12
0.01 0.00 0.00 0.00 0.00 0.00 0.01 0.00 0.00 0.00 0.00 0.01 0.01 0.01 0.01 0.02 0.01 0.00 0.00 0.00 0.00 0.00 0.01 0.01 0.06 0.07 0.08 0.08 0.07 0.07 0.08 0.07 0.07 0.06 0.05 0.05 0.06 0.07 0.08 0.07 0.07 0.08 0.09 0.09 0.10 0.11 0.10 0.09 0.10
0.01 0.00 0.00 0.00 0.00 0.00 0.00 0.00 0.00 0.01 0.01 0.01 0.01 0.01 0.01 0.01 0.00 0.00 0.00 0.00 0.00 0.00 0.00 0.01 0.03 0.05 0.06 0.08 0.09 0.08 0.08 0.06 0.05 0.06 0.05 0.05 0.07 0.07 0.06 0.06 0.06 0.05 0.06 0.06 0.06 0.07 0.08 0.07 0.08
0.01 0.00 0.01 0.00 0.00 0.00 0.00 0.00 0.00 0.01 0.01 0.02 0.02 0.01 0.01 0.01 0.01 0.01 0.00 0.00 0.00 0.00 0.01 0.01 0.02 0.03 0.06 0.06 0.05 0.05 0.07 0.07 0.07 0.06 0.06 0.06 0.07 0.07 0.07 0.07 0.06 0.06 0.07 0.06 0.05 0.06 0.07 0.06 0.06
0.00 0.00 0.01 0.01 0.01 0.01 0.01 0.01 0.01 0.01 0.02 0.05 0.02 0.01 0.01 0.00 0.00 0.01 0.01 0.01 0.00 0.00 0.01 0.01 0.02 0.03 0.05 0.05 0.03 0.02 0.05 0.05 0.05 0.07 0.09 0.07 0.06 0.08 0.09 0.08 0.07 0.09 0.13 0.14 0.09 0.08 0.06 0.06 0.06
0.00 0.00 0.00 0.01 0.01 0.01 0.01 0.01 0.01 0.00 0.03 0.02 0.01 0.01 0.00 0.00 0.00 0.00 0.00 0.01 0.01 0.01 0.01 0.02 0.02 0.04 0.06 0.05 0.02 0.01 0.04 0.03 0.04 0.06 0.09 0.08 0.07 0.09 0.11 0.11 0.11 0.13 0.20 0.21 0.16 0.12 0.09 0.07 0.06
0.00 0.00 0.00 0.01 0.01 0.01 0.01 0.02 0.02 0.00 0.01 0.01 0.01 0.00 0.00 0.00 0.00 0.00 0.00 0.01 0.01 0.02 0.03 0.03 0.03 0.04 0.04 0.03 0.02 0.02 0.03 0.03 0.05 0.07 0.08 0.07 0.06 0.06 0.09 0.11 0.13 0.15 0.19 0.20 0.16 0.12 0.10 0.09 0.07
0.00 0.01 0.01 0.01 0.01 0.01 0.01 0.02 0.02 0.01 0.01 0.01 0.01 0.00 0.00 0.00 0.00 0.01 0.01 0.02 0.02 0.02 0.03 0.03 0.02 0.02 0.02 0.03 0.03 0.03 0.03 0.05 0.07 0.08 0.07 0.05 0.05 0.06 0.05 0.07 0.09 0.12 0.15 0.16 0.13 0.10 0.08 0.08 0.08
0.00 0.00 0.01 0.01 0.01 0.01 0.01 0.01 0.01 0.01 0.00 0.00 0.00 0.00 0.00 0.00 0.00 0.00 0.00 0.01 0.01 0.02 0.01 0.01 0.02 0.02 0.02 0.03 0.03 0.04 0.05 0.08 0.11 0.08 0.06 0.05 0.05 0.06 0.05 0.05 0.05 0.07 0.09 0.09 0.07 0.06 0.06 0.07 0.07
0.00 0.00 0.00 0.01 0.01 0.01 0.01 0.01 0.01 0.01 0.01 0.00 0.00 0.00 0.00 0.00 0.00 0.00 0.01 0.01 0.02 0.02 0.01 0.00 0.01 0.02 0.02 0.01 0.02 0.04 0.07 0.11 0.12 0.09 0.05 0.04 0.05 0.04 0.04 0.04 0.04 0.04 0.04 0.04 0.04 0.05 0.06 0.06 0.06
0.00 0.00 0.00 0.01 0.01 0.01 0.01 0.01 0.01 0.01 0.01 0.00 0.00 0.00 0.00 0.00 0.01 0.01 0.01 0.01 0.01 0.01 0.01 0.01 0.01 0.02 0.01 0.01 0.01 0.03 0.09 0.11 0.10 0.06 0.04 0.04 0.04 0.04 0.04 0.04 0.03 0.03 0.03 0.03 0.03 0.04 0.04 0.04 0.05
0.00 0.00 0.00 0.00 0.00 0.01 0.01 0.01 0.01 0.01 0.01 0.01 0.01 0.01 0.00 0.00 0.00 0.00 0.01 0.01 0.01 0.01 0.01 0.01 0.01 0.01 0.01 0.01 0.01 0.01 0.05 0.06 0.03 0.02 0.03 0.04 0.05 0.04 0.04 0.04 0.05 0.05 0.04 0.04 0.04 0.05 0.04 0.04 0.05
0.00 0.00 0.00 0.00 0.00 0.00 0.01 0.01 0.01 0.01 0.01 0.01 0.01 0.01 0.00 0.00 0.00 0.01 0.01 0.01 0.01 0.01 0.01 0.01 0.01 0.01 0.02 0.02 0.02 0.01 0.01 0.01 0.01 0.01 0.02 0.03 0.04 0.03 0.03 0.04 0.04 0.04 0.05 0.05 0.06 0.07 0.06 0.05 0.05
0.00 0.00 0.00 0.00 0.00 0.01 0.01 0.01 0.01 0.01 0.01 0.01 0.01 0.00 0.00 0.00 0.00 0.01 0.01 0.02 0.01 0.01 0.01 0.01 0.01 0.01 0.02 0.02 0.02 0.01 0.01 0.00 0.00 0.01 0.01 0.02 0.02 0.02 0.02 0.02 0.03 0.03 0.04 0.06 0.06 0.06 0.05 0.04 0.04
0.00 0.00 0.00 0.00 0.00 0.01 0.01 0.01 0.00 0.00 0.00 0.01 0.01 0.01 0.01 0.01 0.01 0.01 0.01 0.02 0.02 0.01 0.01 0.02 0.02 0.01 0.02 0.02 0.02 0.01 0.01 0.00 0.00 0.01 0.01 0.01 0.01 0.01 0.01 0.01 0.02 0.03 0.03 0.04 0.07 0.08 0.05 0.03 0.02
0.00 0.00 0.01 0.00 0.01 0.00 0.01 0.01 0.00 0.00 0.00 0.00 0.01 0.01 0.01 0.01 0.01 0.01 0.01 0.02 0.02 0.02 0.01 0.01 0.02 0.02 0.02 0.02 0.01 0.01 0.01 0.00 0.00 0.01 0.01 0.00 0.00 0.00 0.00 0.00 0.01 0.02 0.02 0.05 0.05 0.06 0.07 0.05 0.03
0.00 0.00 0.00 0.00 0.00 0.00 0.01 0.01 0.00 0.00 0.00 0.00 0.00 0.01 0.01 0.02 0.03 0.03 0.02 0.01 0.03 0.03 0.02 0.01 0.01 0.01 0.02 0.01 0.02 0.02 0.01 0.00 0.00 0.01 0.01 0.00 0.00 0.00 0.00 0.01 0.01 0.02 0.02 0.03 0.05 0.05 0.05 0.06 0.07
0.00 0.01 0.00 0.01 0.01 0.01 0.01 0.00 0.00 0.00 0.00 0.00 0.01 0.01 0.01 0.01 0.01 0.02 0.02 0.02 0.04 0.04 0.04 0.03 0.03 0.03 0.03 0.02 0.03 0.02 0.01 0.01 0.01 0.01 0.00 0.00 0.01 0.00 0.01 0.01 0.01 0.02 0.03 0.04 0.04 0.04 0.03 0.04 0.05
0.00 0.00 0.00 0.00 0.00 0.01 0.01 0.00 0.00 0.00 0.00 0.00 0.01 0.01 0.02 0.02 0.02 0.02 0.05 0.07 0.07 0.07 0.08 0.06 0.04 0.03 0.03 0.03 0.03 0.03 0.01 0.01 0.01 0.01 0.01 0.01 0.01 0.01 0.01 0.01 0.01 0.01 0.03 0.05 0.06 0.05 0.04 0.03 0.03
0.00 0.00 0.00 0.00 0.00 0.00 0.01 0.00 0.00 0.00 0.00 0.00 0.01 0.03 0.02 0.03 0.03 0.03 0.05 0.07 0.12 0.10 0.12 0.11 0.08 0.05 0.03 0.02 0.03 0.02 0.01 0.01 0.01 0.01 0.01 0.01 0.01 0.01 0.01 0.01 0.01 0.01 0.01 0.02 0.04 0.05 0.04 0.04 0.04
0.00 0.00 0.00 0.00 0.00 0.00 0.00 0.00 0.00 0.00 0.01 0.01 0.01 0.02 0.02 0.03 0.03 0.04 0.04 0.04 0.09 0.13 0.14 0.13 0.11 0.08 0.04 0.03 0.02 0.02 0.02 0.02 0.02 0.02 0.02 0.02 0.02 0.02 0.01 0.01 0.01 0.01 0.01 0.01 0.01 0.02 0.03 0.04 0.05
MSLP
1005.51 1006.69 1008.10 1009.57 1010.90 1011.94 1012.61 1012.91 1012.93 1012.79 1012.65 1012.61 1012.71 1012.94 1013.21 1013.42 1013.45 1013.24 1012.80 1012.19 1011.53 1010.93 1010.49 1010.26 1010.25 1010.39 1010.58 1010.74 1010.79 1010.70 1010.49 1010.22 1009.96 1009.77 1009.71 1009.77 1009.94 1010.17 1010.41 1010.63 1010.81 1010.98 1011.16 1011.37 1011.66 1012.00 1012.40 1012.80 1013.18
1006.09 1007.46 1009.01 1010.53 1011.84 1012.78 1013.30 1013.40 1013.20 1012.84 1012.48 1012.24 1012.19 1012.30 1012.52 1012.71 1012.79 1012.67 1012.36 1011.90 1011.38 1010.91 1010.57 1010.43 1010.48 1010.66 1010.90 1011.11 1011.23 1011.23 1011.12 1010.96 1010.79 1010.68 1010.66 1010.73 1010.87 1011.04 1011.21 1011.35 1011.47 1011.59 1011.73 1011.92 1012.18 1012.51 1012.86 1013.22 1013.54
1006.78 1008.27 1009.87 1011.36 1012.56 1013.36 1013.70 1013.62 1013.23 1012.69 1012.17 1011.80 1011.64 1011.68 1011.85 1012.05 1012.18 1012.16 1011.97 1011.65 1011.28 1010.94 1010.71 1010.65 1010.74 1010.95 1011.22 1011.45 1011.62 1011.69 1011.67 1011.60 1011.53 1011.50 1011.52 1011.59 1011.70 1011.82 1011.92 1012.00 1012.06 1012.14 1012.25 1012.43 1012.67 1012.97 1013.29 1013.59 1013.85
1007.51 1009.04 1010.59 1011.96 1013.01 1013.62 1013.79 1013.55 1013.03 1012.40 1011.81 1011.38 1011.18 1011.19 1011.36 1011.58 1011.76 1011.82 1011.74 1011.55 1011.31 1011.09 1010.95 1010.95 1011.07 1011.28 1011.54 1011.77 1011.96 1012.07 1012.11 1012.12 1012.13 1012.15 1012.21 1012.29 1012.38 1012.46 1012.51 1012.54 1012.57 1012.62 1012.73 1012.90 1013.13 1013.40 1013.68 1013.94 1014.14
1008.24 1009.71 1011.12 1012.30 1013.14 1013.57 1013.58 1013.24 1012.68 1012.05 1011.48 1011.09 1010.92 1010.96 1011.14 1011.39 1011.60 1011.72 1011.73 1011.64 1011.50 1011.37 1011.30 1011.33 1011.46 1011.65 1011.87 1012.08 1012.25 1012.37 1012.45 1012.50 1012.56 1012.64 1012.73 1012.82 1012.91 1012.96 1012.99 1013.00 1013.02 1013.06 1013.16 1013.33 1013.56 1013.81 1014.06 1014.27 1014.43
1008.89 1010.22 1011.42 1012.38 1013.00 1013.25 1013.15 1012.78 1012.26 1011.71 1011.26 1010.98 1010.90 1011.00 1011.22 1011.49 1011.73 1011.88 1011.93 1011.90 1011.82 1011.76 1011.73 1011.78 1011.89 1012.05 1012.22 1012.38 1012.52 1012.62 1012.71 1012.79 1012.88 1012.99 1013.11 1013.22 1013.31 1013.36 1013.38 1013.39 1013.41 1013.46 1013.57 1013.74 1013.96 1014.20 1014.42 1014.59 1014.71
1009.41 1010.55 1011.51 1012.22 1012.63 1012.74 1012.59 1012.25 1011.84 1011.45 1011.18 1011.06 1011.11 1011.29 1011.56 1011.83 1012.06 1012.21 1012.27 1012.26 1012.22 1012.19 1012.19 1012.24 1012.34 1012.46 1012.58 1012.69 1012.78 1012.86 1012.94 1013.03 1013.14 1013.27 1013.42 1013.54 1013.64 1013.71 1013.73 1013.74 1013.77 1013.84 1013.96 1014.13 1014.34 1014.55 1014.74 1014.88 1014.96
1009.75 1010.68 1011.40 1011.89 1012.12 1012.13 1011.97 1011.72 1011.46 1011.27 1011.20 1011.26 1011.45 1011.71 1012.00 1012.27 1012.47 1012.59 1012.63 1012.63 1012.60 1012.59 1012.61 1012.67 1012.75 1012.85 1012.94 1013.01 1013.07 1013.12 1013.19 1013.28 1013.41 1013.56 1013.71 1013.86 1013.97 1014.04 1014.08 1014.10 1014.13 1014.20 1014.32 1014.49 1014.68 1014.87 1015.02 1015.12 1015.17
1009.89 1010.62 1011.14 1011.44 1011.54 1011.50 1011.38 1011.23 1011.14 1011.15 1011.26 1011.49 1011.78 1012.11 1012.41 1012.65 1012.81 1012.89 1012.90 1012.88 1012.86 1012.87 1012.92 1013.00 1013.09 1013.19 1013.27 1013.33 1013.37 1013.42 1013.48 1013.57 1013.71 1013.86 1014.03 1014.18 1014.30 1014.38 1014.43 1014.45 1014.48 1014.55 1014.66 1014.80 1014.97 1015.12 1015.24 1015.31 1015.31
1009.83 1010.41 1010.78 1010.95 1010.98 1010.92 1010.85 1010.81 1010.87 1011.03 1011.30 1011.63 1012.00 1012.35 1012.64 1012.85 1012.96 1013.00 1012.98 1012.96 1012.96 1013.00 1013.08 1013.20 1013.33 1013.46 1013.55 1013.62 1013.68 1013.73 1013.79 1013.89 1014.03 1014.19 1014.36 1014.52 1014.64 1014.72 1014.76 1014.78 1014.80 1014.85 1014.94 1015.05 1015.19 1015.31 1015.39 1015.42 1015.39
1009.65 1010.13 1010.39 1010.49 1010.49 1010.44 1010.42 1010.47 1010.63 1010.90 1011.25 1011.64 1012.03 1012.37 1012.63 1012.79 1012.87 1012.88 1012.86 1012.86 1012.89 1012.98 1013.11 1013.28 1013.47 1013.63 1013.77 1013.87 1013.95 1014.01 1014.09 1014.19 1014.33 1014.49 1014.65 1014.80 1014.92 1014.99 1015.03 1015.04 1015.05 1015.08 1015.14 1015.23 1015.33 1015.42 1015.47 1015.47 1015.41
1009.43 1009.85 1010.07 1010.14 1010.13 1010.10 1010.12 1010.23 1010.44 1010.74 1011.10 1011.49 1011.85 1012.16 1012.38 1012.51 1012.57 1012.58 1012.59 1012.62 1012.70 1012.84 1013.03 1013.27 1013.50 1013.72 1013.91 1014.05 1014.15 1014.24 1014.33 1014.43 1014.55 1014.69 1014.84 1014.97 1015.08 1015.15 1015.18 1015.19 1015.19 1015.21 1015.25 1015.31 1015.38 1015.44 1015.47 1015.45 1015.37
1009.28 1009.67 1009.88 1009.95 1009.95 1009.95 1009.99 1010.10 1010.30 1010.58 1010.90 1011.23 1011.54 1011.79 1011.98 1012.10 1012.16 1012.20 1012.25 1012.33 1012.47 1012.66 1012.91 1013.19 1013.48 1013.74 1013.96 1014.14 1014.27 1014.37 1014.45 1014.54 1014.64 1014.76 1014.88 1014.99 1015.08 1015.14 1015.17 1015.18 1015.19 1015.20 1015.24 1015.28 1015.34 1015.39 1015.41 1015.38 1015.29
1009.30 1009.67 1009.87 1009.96 1009.98 1009.99 1010.03 1010.12 1010.27 1010.47 1010.70 1010.95 1011.18 1011.38 1011.54 1011.67 1011.77 1011.86 1011.96 1012.10 1012.29 1012.52 1012.80 1013.11 1013.42 1013.71 1013.95 1014.14 1014.29 1014.39 1014.46 1014.52 1014.59 1014.66 1014.74 1014.82 1014.90 1014.96 1015.00 1015.03 1015.05 1015.08 1015.12 1015.17 1015.22 1015.27 1015.29 1015.27 1015.18
1009.51 1009.86 1010.07 1010.16 1010.20 1010.21 1010.23 1010.27 1010.34 1010.45 1010.57 1010.72 1010.87 1011.03 1011.18 1011.34 1011.48 1011.64 1011.81 1011.99 1012.22 1012.47 1012.75 1013.05 1013.35 1013.64 1013.89 1014.08 1014.23 1014.32 1014.37 1014.40 1014.42 1014.44 1014.48 1014.53 1014.58 1014.64 1014.70 1014.76 1014.81 1014.86 1014.92 1014.99 1015.06 1015.11 1015.14 1015.13 1015.07
1009.89 1010.21 1010.40 1010.51 1010.56 1010.58 1010.57 1010.56 1010.54 1010.53 1010.54 1010.59 1010.67 1010.79 1010.95 1011.15 1011.35 1011.58 1011.80 1012.03 1012.26 1012.50 1012.76 1013.02 1013.30 1013.56 1013.80 1013.99 1014.13 1014.22 1014.25 1014.24 1014.21 1014.18 1014.17 1014.18 1014.22 1014.28 1014.35 1014.44 1014.53 1014.62 1014.71 1014.79 1014.87 1014.94 1014.99 1015.00 1014.98
1010.33 1010.60 1010.79 1010.91 1010.99 1011.02 1011.00 1010.93 1010.82 1010.71 1010.61 1010.55 1010.56 1010.66 1010.83 1011.07 1011.34 1011.63 1011.90 1012.15 1012.37 1012.58 1012.79 1013.01 1013.23 1013.47 1013.69 1013.89 1014.03 1014.12 1014.14 1014.11 1014.04 1013.97 1013.91 1013.88 1013.89 1013.95 1014.04 1014.16 1014.29 1014.41 1014.52 1014.62 1014.71 1014.79 1014.86 1014.90 1014.91
1010.70 1010.94 1011.13 1011.29 1011.41 1011.47 1011.44 1011.33 1011.14 1010.92 1010.70 1010.55 1010.49 1010.56 1010.74 1011.02 1011.35 1011.69 1012.00 1012.26 1012.47 1012.64 1012.80 1012.96 1013.15 1013.36 1013.59 1013.80 1013.97 1014.08 1014.11 1014.07 1013.98 1013.87 1013.77 1013.70 1013.70 1013.75 1013.85 1013.99 1014.14 1014.29 1014.42 1014.53 1014.62 1014.71 1014.78 1014.84 1014.88
1010.87 1011.10 1011.33 1011.57 1011.76 1011.87 1011.86 1011.71 1011.44 1011.10 1010.77 1010.50 1010.36 1010.39 1010.57 1010.87 1011.26 1011.65 1012.00 1012.27 1012.47 1012.61 1012.72 1012.85 1013.01 1013.22 1013.47 1013.72 1013.94 1014.10 1014.17 1014.15 1014.06 1013.93 1013.80 1013.71 1013.67 1013.72 1013.82 1013.97 1014.14 1014.30 1014.44 1014.55 1014.64 1014.71 1014.78 1014.86 1014.93
1010.77 1011.03 1011.36 1011.71 1012.01 1012.20 1012.21 1012.03 1011.68 1011.21 1010.73 1010.33 1010.09 1010.05 1010.21 1010.54 1010.96 1011.40 1011.80 1012.10 1012.31 1012.44 1012.53 1012.64 1012.80 1013.03 1013.32 1013.64 1013.94 1014.17 1014.30 1014.33 1014.26 1014.13 1013.99 1013.87 1013.83 1013.86 1013.96 1014.11 1014.29 1014.45 1014.59 1014.69 1014.77 1014.82 1014.89 1014.97 1015.07
1010.39 1010.75 1011.23 1011.74 1012.19 1012.48 1012.52 1012.30 1011.84 1011.22 1010.57 1010.01 1009.63 1009.50 1009.62 1009.95 1010.42 1010.92 1011.37 1011.72 1011.96 1012.11 1012.22 1012.34 1012.52 1012.79 1013.15 1013.54 1013.93 1014.25 1014.46 1014.55 1014.52 1014.42 1014.28 1014.16 1014.11 1014.13 1014.23 1014.39 1014.56 1014.73 1014.86 1014.96 1015.01 1015.05 1015.10 1015.18 1015.29
1009.83 1010.36 1011.04 1011.75 1012.37 1012.76 1012.83 1012.55 1011.96 1011.16 1010.31 1009.55 1009.01 1008.77 1008.83 1009.16 1009.66 1010.23 1010.76 1011.18 1011.48 1011.68 1011.82 1011.97 1012.19 1012.51 1012.93 1013.40 1013.87 1014.29 1014.59 1014.75 1014.78 1014.71 1014.60 1014.49 1014.44 1014.46 1014.57 1014.73 1014.92 1015.09 1015.23 1015.31 1015.35 1015.38 1015.41 1015.48 1015.61
1009.23 1009.98 1010.89 1011.83 1012.61 1013.09 1013.17 1012.81 1012.06 1011.06 1009.99 1009.02 1008.31 1007.94 1007.95 1008.27 1008.81 1009.45 1010.07 1010.58 1010.96 1011.21 1011.40 1011.59 1011.85 1012.21 1012.67 1013.21 1013.75 1014.25 1014.63 1014.87 1014.96 1014.94 1014.86 1014.79 1014.75 1014.80 1014.92 1015.10 1015.30 1015.49 1015.63 1015.72 1015.76 1015.78 1015.80 1015.86 1015.98
1008.77 1009.75 1010.90 1012.04 1012.96 1013.51 1013.56 1013.09 1012.18 1010.97 1009.68 1008.50 1007.62 1007.15 1007.09 1007.41 1008.00 1008.72 1009.42 1010.03 1010.48 1010.80 1011.04 1011.26 1011.54 1011.92 1012.41 1012.98 1013.57 1014.12 1014.57 1014.87 1015.03 1015.07 1015.04 1015.00 1015.00 1015.07 1015.22 1015.43 1015.66 1015.87 1016.04 1016.15 1016.19 1016.21 1016.23 1016.29 1016.40
1008.56 1009.74 1011.10 1012.39 1013.41 1013.98 1013.98 1013.39 1012.31 1010.90 1009.41 1008.07 1007.05 1006.49 1006.40 1006.73 1007.37 1008.15 1008.94 1009.62 1010.14 1010.51 1010.77 1011.01 1011.29 1011.66 1012.15 1012.73 1013.35 1013.93 1014.43 1014.78 1015.00 1015.10 1015.12 1015.13 1015.18 1015.29 1015.47 1015.72 1015.98 1016.23 1016.42 1016.56 1016.62 1016.65 1016.67 1016.73 1016.83
1008.63 1009.98 1011.45 1012.83 1013.88 1014.41 1014.32 1013.61 1012.39 1010.83 1009.20 1007.75 1006.65 1006.04 1005.95 1006.30 1006.98 1007.82 1008.67 1009.40 1009.97 1010.36 1010.63 1010.86 1011.12 1011.47 1011.95 1012.51 1013.13 1013.73 1014.25 1014.65 1014.91 1015.07 1015.14 1015.20 1015.29 1015.44 1015.67 1015.95 1016.25 1016.53 1016.76 1016.92 1017.02 1017.07 1017.10 1017.15 1017.24
1008.95 1010.37 1011.87 1013.24 1014.23 1014.68 1014.49 1013.66 1012.33 1010.70 1009.01 1007.52 1006.42 1005.83 1005.76 1006.15 1006.87 1007.74 1008.62 1009.37 1009.94 1010.33 1010.59 1010.79 1011.02 1011.35 1011.80 1012.35 1012.96 1013.56 1014.10 1014.54 1014.84 1015.04 1015.16 1015.26 1015.39 1015.57 1015.83 1016.14 1016.47 1016.78 1017.04 1017.24 1017.36 1017.43 1017.47 1017.52 1017.61
1009.41 1010.78 1012.21 1013.47 1014.33 1014.65 1014.33 1013.43 1012.06 1010.42 1008.77 1007.34 1006.32 1005.80 1005.79 1006.23 1006.97 1007.86 1008.72 1009.45 1010.00 1010.36 1010.59 1010.77 1010.98 1011.29 1011.72 1012.27 1012.88 1013.49 1014.05 1014.51 1014.84 1015.07 1015.22 1015.35 1015.50 1015.70 1015.97 1016.29 1016.64 1016.97 1017.26 1017.48 1017.63 1017.72 1017.78 1017.83 1017.92
1009.86 1011.09 1012.33 1013.38 1014.05 1014.20 1013.78 1012.83 1011.48 1009.94 1008.42 1007.15 1006.27 1005.88 1005.97 1006.46 1007.21 1008.07 1008.89 1009.57 1010.07 1010.39 1010.59 1010.76 1010.97 1011.28 1011.73 1012.29 1012.91 1013.55 1014.13 1014.60 1014.95 1015.19 1015.35 1015.49 1015.63 1015.83 1016.10 1016.42 1016.77 1017.11 1017.41 1017.65 1017.82 1017.93 1018.01 1018.07 1018.16
1010.19 1011.18 1012.15 1012.93 1013.36 1013.33 1012.82 1011.88 1010.62 1009.25 1007.94 1006.90 1006.23 1006.00 1006.20 1006.73 1007.47 1008.28 1009.03 1009.63 1010.07 1010.34 1010.53 1010.71 1010.95 1011.31 1011.80 1012.41 1013.07 1013.74 1014.33 1014.82 1015.17 1015.40 1015.55 1015.66 1015.78 1015.96 1016.20 1016.50 1016.84 1017.18 1017.49 1017.75 1017.94 1018.07 1018.16 1018.24 1018.33
Thickness
5809 5806 5802 5791 5771 5753 5750 5763 5772 5772 5774 5781 5784 5778 5770 5764 5758 5755 5777 5786 5787 5786 5785 5785 5786 5786 5785 5784 5782 5781 5781 5781 5780 5779 5778 5778 5778 5778 5778 5777 5776 5775 5774 5772 5771 5770 5769 5767 5766
5810 5806 5797 5783 5758 5740 5749 5769 5771 5776 5782 5786 5784 5779 5771 5768 5774 5775 5779 5784 5785 5784 5783 5783 5783 5783 5782 5781 5780 5779 5779 5778 5778 5777 5776 5776 5776 5777 5777 5776 5775 5774 5773 5772 5770 5769 5768 5766 5765
5812 5808 5789 5772 5756 5747 5757 5773 5777 5784 5790 5787 5780 5779 5773 5769 5775 5776 5780 5783 5783 5782 5781 5780 5780 5780 5779 5779 5778 5777 5776 5776 5775 5775 5775 5774 5774 5775 5775 5775 5774 5773 5772 5771 5770 5768 5767 5766 5765
5810 5798 5785 5767 5761 5768 5774 5780 5785 5784 5788 5788 5781 5772 5775 5780 5779 5780 5782 5782 5780 5779 5778 5778 5778 5777 5777 5776 5775 5774 5774 5773 5773 5773 5773 5773 5773 5773 5773 5774 5774 5773 5772 5770 5769 5767 5766 5765 5764
5809 5790 5772 5759 5767 5779 5787 5791 5790 5783 5782 5783 5780 5768 5767 5778 5783 5782 5781 5780 5777 5776 5776 5775 5775 5774 5774 5774 5773 5773 5772 5771 5772 5772 5772 5772 5771 5771 5772 5772 5772 5771 5770 5769 5768 5767 5766 5765 5764
5796 5784 5761 5755 5769 5783 5791 5796 5791 5784 5782 5783 5779 5768 5766 5777 5779 5779 5779 5776 5775 5774 5773 5773 5773 5772 5772 5772 5772 5771 5771 5770 5770 5770 5770 5770 5769 5770 5770 5770 5770 5770 5769 5768 5767 5766 5766 5764 5763
5792 5777 5765 5767 5770 5779 5791 5798 5790 5784 5782 5783 5783 5767 5766 5774 5778 5778 5776 5774 5772 5772 5771 5770 5770 5770 5770 5770 5770 5770 5770 5769 5769 5768 5768 5768 5767 5768 5768 5768 5768 5768 5768 5767 5766 5765 5765 5763 5762
5802 5782 5771 5770 5773 5780 5797 5799 5797 5790 5786 5793 5788 5769 5765 5774 5778 5776 5773 5771 5769 5769 5768 5768 5768 5768 5768 5768 5768 5768 5768 5767 5766 5766 5766 5765 5765 5765 5766 5766 5766 5767 5766 5765 5765 5765 5764 5763 5761
5808 5778 5767 5777 5780 5788 5800 5796 5797 5801 5793 5791 5790 5784 5782 5781 5777 5772 5768 5766 5765 5765 5765 5766 5766 5766 5767 5767 5767 5766 5766 5765 5764 5763 5763 5763 5763 5763 5764 5765 5765 5765 5765 5764 5764 5763 5762 5761 5760
5799 5776 5784 5800 5801 5799 5802 5798 5796 5793 5785 5783 5783 5784 5784 5779 5774 5768 5764 5761 5761 5761 5763 5764 5764 5764 5765 5765 5765 5765 5764 5762 5761 5760 5760 5760 5760 5761 5761 5762 5763 5763 5763 5763 5762 5761 5761 5760 5759
5802 5793 5804 5812 5814 5811 5804 5801 5802 5790 5780 5784 5781 5780 5780 5775 5771 5767 5764 5763 5762 5762 5762 5763 5763 5763 5763 5763 5763 5763 5761 5760 5759 5758 5758 5757 5758 5758 5758 5759 5760 5760 5760 5760 5760 5759 5759 5758 5758
5805 5810 5815 5817 5819 5813 5807 5804 5799 5795 5794 5800 5795 5789 5781 5774 5770 5768 5765 5763 5763 5762 5762 5762 5762 5762 5761 5761 5761 5760 5759 5758 5757 5756 5756 5755 5755 5755 5755 5756 5757 5758 5758 5757 5758 5757 5757 5757 5756
5808 5812 5820 5821 5819 5816 5811 5804 5801 5798 5804 5803 5795 5787 5781 5775 5772 5770 5769 5766 5764 5762 5762 5762 5762 5761 5760 5760 5759 5758 5757 5757 5756 5755 5755 5754 5754 5753 5753 5755 5755 5756 5756 5755 5756 5756 5756 5755 5754
5814 5815 5816 5818 5817 5817 5806 5802 5801 5798 5803 5798 5791 5784 5781 5777 5774 5771 5768 5765 5764 5763 5763 5763 5762 5761 5760 5759 5758 5757 5756 5756 5755 5755 5754 5753 5753 5752 5753 5753 5754 5754 5754 5754 5754 5754 5754 5753 5753
5819 5809 5808 5812 5814 5813 5807 5793 5796 5802 5802 5793 5789 5785 5782 5779 5776 5773 5772 5769 5767 5766 5765 5764 5764 5763 5761 5760 5759 5758 5757 5756 5755 5755 5754 5753 5753 5753 5753 5753 5753 5753 5753 5753 5753 5753 5753 5752 5751
5810 5796 5787 5803 5810 5810 5799 5779 5798 5804 5798 5790 5788 5785 5781 5779 5778 5777 5776 5773 5771 5768 5766 5765 5766 5763 5762 5760 5759 5758 5757 5756 5755 5755 5754 5754 5754 5753 5752 5752 5752 5752 5752 5752 5752 5752 5751 5749 5748
5787 5777 5779 5792 5807 5806 5796 5784 5799 5803 5798 5790 5788 5785 5782 5779 5778 5779 5778 5776 5773 5771 5768 5767 5766 5764 5762 5761 5760 5759 5757 5756 5756 5756 5755 5755 5754 5753 5752 5752 5752 5752 5751 5751 5751 5750 5749 5747 5746
5775 5777 5780 5784 5800 5800 5790 5788 5798 5802 5798 5792 5789 5786 5783 5780 5780 5782 5780 5778 5775 5773 5770 5768 5767 5765 5763 5761 5759 5758 5757 5756 5756 5755 5755 5755 5754 5753 5752 5751 5751 5751 5750 5749 5749 5748 5747 5745 5744
5792 5784 5779 5789 5803 5796 5788 5788 5794 5798 5796 5792 5789 5786 5784 5783 5785 5784 5781 5779 5776 5773 5770 5768 5766 5765 5763 5760 5758 5756 5755 5755 5755 5755 5755 5755 5754 5754 5752 5751 5750 5750 5749 5748 5747 5746 5743 5741 5741
5791 5782 5781 5790 5802 5795 5785 5786 5794 5797 5796 5796 5793 5789 5787 5784 5783 5782 5780 5778 5776 5774 5772 5769 5768 5766 5765 5763 5761 5759 5757 5756 5756 5755 5755 5755 5754 5754 5753 5752 5750 5749 5748 5746 5745 5744 5741 5740 5739
5788 5783 5783 5783 5791 5791 5784 5777 5785 5793 5797 5797 5796 5794 5791 5788 5784 5783 5781 5779 5777 5775 5773 5772 5769 5767 5766 5765 5762 5760 5757 5755 5754 5753 5753 5754 5754 5753 5753 5752 5751 5749 5748 5745 5744 5743 5740 5737 5737
5780 5796 5794 5788 5774 5762 5772 5752 5774 5783 5786 5791 5793 5793 5791 5791 5788 5785 5783 5780 5779 5778 5777 5774 5771 5768 5766 5765 5762 5759 5755 5752 5753 5753 5753 5754 5754 5753 5753 5752 5750 5749 5747 5745 5744 5743 5741 5738 5735
5791 5800 5793 5784 5770 5758 5762 5752 5763 5778 5779 5787 5793 5795 5795 5794 5791 5788 5785 5784 5783 5782 5779 5776 5772 5769 5767 5765 5763 5760 5757 5756 5755 5754 5753 5753 5753 5753 5752 5751 5749 5748 5747 5745 5743 5742 5741 5739 5736
5800 5789 5778 5765 5756 5741 5752 5748 5754 5768 5780 5789 5795 5798 5798 5797 5794 5791 5789 5786 5783 5781 5779 5776 5772 5769 5767 5766 5764 5761 5758 5756 5754 5753 5752 5752 5752 5751 5751 5750 5749 5747 5746 5745 5743 5742 5741 5739 5737
5789 5765 5740 5736 5727 5732 5751 5748 5756 5783 5792 5796 5796 5798 5799 5798 5795 5790 5787 5785 5783 5780 5778 5776 5772 5769 5767 5765 5763 5762 5760 5758 5755 5754 5753 5751 5750 5750 5750 5749 5748 5747 5746 5744 5743 5741 5740 5739 5736
5777 5767 5738 5725 5721 5730 5744 5742 5767 5790 5798 5802 5802 5801 5799 5797 5794 5791 5789 5786 5784 5782 5779 5776 5772 5770 5768 5766 5764 5763 5761 5759 5757 5755 5754 5753 5752 5751 5751 5749 5748 5747 5746 5744 5742 5741 5739 5738 5736
5771 5761 5763 5738 5731 5725 5732 5748 5771 5790 5792 5795 5797 5797 5796 5795 5793 5790 5788 5786 5784 5782 5780 5777 5773 5770 5768 5767 5765 5762 5760 5759 5758 5756 5755 5754 5753 5752 5751 5749 5748 5746 5745 5743 5741 5739 5737 5736 5734
5778 5763 5745 5732 5718 5715 5729 5738 5748 5772 5778 5785 5789 5790 5792 5793 5791 5789 5787 5786 5784 5782 5779 5776 5773 5770 5769 5767 5764 5763 5760 5760 5758 5756 5754 5753 5752 5751 5750 5748 5747 5746 5744 5742 5739 5737 5736 5734 5732
5762 5754 5740 5728 5727 5715 5713 5733 5769 5772 5777 5780 5784 5788 5790 5791 5790 5788 5786 5785 5783 5780 5777 5774 5771 5768 5767 5765 5764 5762 5760 5759 5757 5755 5754 5753 5752 5751 5749 5747 5745 5744 5742 5740 5738 5735 5733 5731 5729
5765 5755 5742 5731 5722 5718 5717 5734 5777 5775 5779 5780 5782 5785 5787 5788 5788 5787 5784 5781 5778 5776 5775 5772 5769 5767 5765 5764 5762 5760 5758 5757 5755 5753 5752 5751 5749 5749 5747 5745 5743 5742 5740 5738 5736 5734 5731 5729 5727